Regional Weather Roundup
Issued by NWS

Home | Current Version | Previous Version | Graphics & Text | Print | Product List | Glossary On
Versions: 1 2 3 4 5 6 7 8 9 10 11 12 13 14 15 16 17 18 19 20 21 22 23 24 25 26 27 28 29 30 31 32 33 34 35 36 37 38 39 40 41 42 43 44 45 46 47 48 49 50
000
ASUS43 KMPX 302001
RWRMN
WEATHER ROUNDUP FOR MINNESOTA
NATIONAL WEATHER SERVICE TWIN CITIES/CHANHASSEN MN
300 PM CDT WED JUL 30 2014


NOTE: "FAIR" INDICATES FEW OR NO CLOUDS BELOW 12,000 FEET WITH NO
SIGNIFICANT WEATHER AND/OR OBSTRUCTIONS TO VISIBILITY. N/A MEANS
CURRENT SKY AND/OR WEATHER CONDITIONS ARE NOT AVAILABLE.

MNZ060>063-068>070-302100-
   Twin Cities Metro

CITY           SKY/WX    TMP DP  RH WIND       PRES   REMARKS
TWIN CITIES    MOSUNNY   82  54  37 W13G18    30.05F
ST PAUL        PTSUNNY   79  57  46 NW15G22   30.05S
CRYSTAL        MOSUNNY   82  52  35 NW10      30.05S
LAKEVILLE      SUNNY     77  57  50 NW8G17    30.06F
EDEN PRAIRIE   SUNNY     80  58  46 NW10      30.06S
SOUTH ST PAUL  MOSUNNY   80  54  41 NW8       30.05S
LAKE ELMO      FAIR      79  59  50 W10       30.06F
$$
MNZ001>005-007-008-013>017-022>024-027-028-302100-
   Northwest Minnesota

CITY           SKY/WX    TMP DP  RH WIND       PRES   REMARKS
BEMIDJI        SUNNY     76  56  50 NW10      30.07F
HALLOCK        SUNNY     81  52  36 NW8       30.06F
ROSEAU         SUNNY     79  61  53 NW7       30.05F
WARROAD        SUNNY     79  59  50 W5        30.05S
THIEF RVR FALL SUNNY     75  52  43 NW9       30.08F
CROOKSTON      SUNNY     77  55  47 NW7       30.09S
FOSSTON        MOSUNNY   75  55  50 W7        30.09F
DETROIT LAKES  SUNNY     75  52  43 NW9       30.12S
MOORHEAD       SUNNY     79  55  44 N7        30.09F
PARK RAPIDS    MOSUNNY   78  52  40 NW10      30.08S
$$
MNZ006-009>011-018-025>026-302100-
   North Central Minnesota

CITY           SKY/WX    TMP DP  RH WIND       PRES   REMARKS
BAUDETTE       SUNNY     79  56  45 NW12      30.04F
FLAG ISLAND    SUNNY     75  55  50 NW12      30.01F
INTL FALLS     MOSUNNY   77  56  48 NW10G22   30.00F
WASKISH        MOSUNNY   77  61  57 W3        30.05S
BIG FORK       MOSUNNY   79  55  44 NW5       30.04S
LONGVILLE      SUNNY     75  57  53 N5        30.07S
GRAND RAPIDS   MOSUNNY   75  55  50 NW16      30.04F
CRANE LAKE     MOSUNNY   73  61  64 N6        30.00S
ORR            MOSUNNY   77  55  47 NW9       29.98S
COOK           MOSUNNY   75  57  53 NW7G22    30.00F
$$
MNZ012-019>021-037-302100-
   Northeast Minnesota

CITY           SKY/WX    TMP DP  RH WIND       PRES   REMARKS
DULUTH         PTSUNNY   78  56  46 NW13G23   29.99F
ELY            LGT RAIN  72  57  60 N12G22    29.98R
HIBBING        MOSUNNY   79  57  46 N16       30.01F
EVELETH        PTSUNNY   77  57  50 W14       30.01F
DULUTH HARBOR  MOSUNNY   68  63  83 S3        29.97F THUNDER
TWO HARBORS    MOSUNNY   77  57  50 W6        29.95F
SILVER BAY     SUNNY     73  61  64 W7        29.93F
GRAND MARAIS     N/A     53  49  86 SW5       29.94S
G MARAIS ARPRT MOSUNNY   70  55  60 N10G17    29.97S
$$
MNZ029>031-032-039>041-046>048-054>057-064-302100-
   West Central Minnesota

CITY           SKY/WX    TMP DP  RH WIND       PRES   REMARKS
FERGUS FALLS   MOSUNNY   77  50  38 NW10      30.09F
WHEATON        MOSUNNY   75  55  50 W6        30.12F
MORRIS         SUNNY     79  55  44 NW7       30.10F
ALEXANDRIA     MOSUNNY   76  53  44 NW9       30.12S
ELBOW LAKE     PTSUNNY   76  56  51 NW6       30.11S
WADENA         MOSUNNY   75  55  50 W7        30.09F
GLENWOOD       SUNNY     79  54  41 NW8       30.11F
APPLETON       SUNNY     81  52  36 NW6       30.10F
BENSON         SUNNY     79  55  44 NW5       30.10F
ORTONVILLE     MOSUNNY   79  52  38 N5        30.11S
MADISON        MOSUNNY   81  57  44 N7        30.11F
WILLMAR        FAIR      77  54  44 NW8       30.11F
$$
MNZ033>034-036-042>043-049>051-058-059-302100-
   Central Minnesota

CITY           SKY/WX    TMP DP  RH WIND       PRES   REMARKS
ST CLOUD       SUNNY     81  51  35 NW12      30.06F
SAUK CENTRE    FAIR      77  54  43 W7        30.10S
PAYNESVILLE    MOSUNNY   77  53  42 W7        30.10S
AITKIN         SUNNY     79  59  50 NW6       30.04F
PINE RIVER     MOSUNNY   75  57  53 NW10      30.10S
BRAINERD       MOSUNNY   77  54  44 N10       30.07S
STAPLES        MOSUNNY   79  50  36 W10G17    30.08F
LONG PRAIRIE   FAIR      75  54  46 W7        30.10S
LITTLE FALLS   MOSUNNY   77  52  41 W12       30.07F
LITCHFIELD     MOSUNNY   79  55  44 W6        30.10S
BUFFALO        MOSUNNY   79  53  40 W9        30.08S
MAPLE LAKE     SUNNY     78  58  48 NW6       30.08F
$$
MNZ037-044-045-052-053-302100-
   East Central Minnesota

CITY           SKY/WX    TMP DP  RH WIND       PRES   REMARKS
PRINCETON      SUNNY     82  55  39 NW9       30.06S
MORA           SUNNY     75  55  50 NW8       30.06F
CAMBRIDGE      SUNNY     81  61  50 NW9       30.04S
RUSH CITY      PTSUNNY   77  60  54 W6        30.04F
MOOSE LAKE     SUNNY     77  59  53 NW6G17    30.01S
HINCKLEY       FAIR      77  61  57 NW8G16    30.03F
CLOQUET        MOSUNNY   77  55  47 NW10      30.01F
MCGREGOR       MOSUNNY   77  57  50 NW12      30.04F
$$
MNZ071>073-080-081-089-090-097-098-302100-
   Southwest Minnesota

CITY           SKY/WX    TMP DP  RH WIND       PRES   REMARKS
MONTEVIDEO     MOSUNNY   79  55  44 N3        30.12S
GRANITE FALLS  MOSUNNY   77  57  49 W8        30.13S
CANBY          MOSUNNY   79  48  33 NW8       30.13S
MARSHALL       SUNNY     75  54  46 N7        30.12S
REDWOOD FALLS  SUNNY     79  54  41 N8        30.10F
OLIVIA         PTSUNNY   77  54  44 NW7       30.11S
PIPESTONE      MOSUNNY   75  52  43 N5        30.14F
WINDOM         SUNNY     77  54  44 W7        30.13S
WORTHINGTON    SUNNY     73  52  46 N7        30.15F
JACKSON        CLOUDY    77  54  44 N5        30.13F
TRACY          MOSUNNY   77  55  46 CALM      30.13F
SLAYTON        MOSUNNY   75  50  41 CALM      30.15S
$$
MNZ065>067-074>077-082>085-091>093-302100-
   South Central Minnesota

CITY           SKY/WX    TMP DP  RH WIND       PRES   REMARKS
MANKATO        MOSUNNY   79  55  44 NW12      30.09S
NEW ULM        MOSUNNY   77  57  50 NW9       30.10S
ST JAMES       MOSUNNY   81  52  36 W8        30.11F
FAIRMONT       MOSUNNY   79  48  34 NW8       30.11S
GLENCOE        SUNNY     78  53  41 NW8       30.08S
FARIBAULT      MOSUNNY   82  52  34 NW7       30.08S
OWATONNA       SUNNY     79  55  44 W7        30.08S
WASECA         MOSUNNY   77  55  47 NW5       30.11S
ALBERT LEA     SUNNY     79  55  44 W5        30.09S
$$
MNZ078>079-086>088-094>096-302100-
   Southeast Minnesota

CITY           SKY/WX    TMP DP  RH WIND       PRES   REMARKS
ROCHESTER      MOSUNNY   77  57  50 VRB3      30.09F
RED WING       SUNNY     81  57  44 NW6       30.04S
STANTON        MOSUNNY   80  56  43 W8        30.05S
DODGE CENTER   MOSUNNY   75  57  53 N3        30.08F
WINONA         SUNNY     79  54  41 N6        30.05F
AUSTIN         MOSUNNY   79  55  44 NW10G17   30.08F
PRESTON        MOSUNNY   73  62  68 NW8       30.09S
$$
ABBREVIATIONS USED IN REMARKS
   TC - TEMPERATURES IN CELSIUS
  WCI - WIND CHILL INDEX
   HX - HEAT INDEX
  VSB - VISIBILITY
$$



USA.gov is the U.S. government's official web portal to all federal, state and local government web resources and services.